[[{"header":{"parameterUnit":"m.s-1","parameterCategory":1,"la1":30.2991,"la2":30.254,"lo1":-89.0895,"lo2":-89.0444,"dy":0.0017,"dx":0.0017,"nx":28,"ny":28,"refTime":"2024-07-29T03:00:00:Z","depth":0,"parameterNumber":2,"parameterNumberName":"U-component_of_WINDS"},"data":[0,0,0,0,0,0,0,0,0,0,0,0,0,0,0,0,0,0,0,0,0,0,0,0,0,0,0,0,0,0,0,0,0,0,0,0,0,0,0,0,0,0,0,0,0,0,0,0,0,0,0,0,0,0,0,0,0,0,4.6415,4.6416,0,4.657,4.6572,4.6574,4.6544,4.6541,4.6539,4.6536,4.6697,4.6703,4.671,0,0,0,0,0,0,0,0,0,0,0,0,0,4.6091,4.6097,4.6414,4.6416,4.6418,4.657,4.6572,4.6574,4.6545,4.6541,4.6538,4.6535,4.6694,4.6703,4.6711,0,0,0,0,0,0,0,0,0,0,0,0,0,4.6238,4.6099,4.6414,4.6422,4.6424,4.657,4.6572,4.6575,4.6545,4.6541,4.6537,4.6533,4.6692,4.6702,4.6712,4.686,0,0,4.6743,4.6748,0,0,0,0,0,0,0,0,4.623,4.625,4.6419,4.6422,4.6424,4.6533,4.6517,4.667,4.6546,4.6499,4.6536,4.6531,4.6646,4.666,4.6698,4.6867,4.6874,4.6744,4.6751,4.6755,4.6758,0,0,0,0,0,0,0,4.6219,4.6243,4.6476,4.6421,4.6425,4.6417,4.6434,4.6546,4.6594,4.6503,4.6501,4.652,4.6647,4.6688,4.6702,4.6877,4.6744,4.6753,4.676,4.6764,4.7171,4.7176,0,0,0,0,0,0,4.6207,4.6235,4.6471,4.6481,4.6315,4.6427,4.6445,4.6503,4.6593,4.6603,4.6524,4.6518,4.6673,4.669,4.6707,4.6883,4.6755,4.6765,4.6771,4.7167,4.7172,4.7177,0,0,0,0,0,0,4.62,4.6228,4.6465,4.6357,4.6387,4.6437,4.6502,4.6508,4.655,4.6608,4.6617,4.6557,4.667,4.6693,4.6821,4.6888,4.6769,4.6779,4.7161,4.7168,4.7175,4.7238,0,0,0,0,0,0,4.6191,4.6226,4.6283,4.6359,4.6393,4.6576,4.6506,4.6514,4.6567,4.6562,4.6642,4.6652,4.6668,4.6806,4.6831,4.69,4.6787,4.7155,4.7164,4.7173,4.723,4.7246,4.726,0,0,0,0,0,4.6179,4.6295,4.6286,4.6314,4.6465,4.658,4.66,4.6616,4.6573,4.663,4.6667,4.6649,4.6878,4.6819,4.6848,4.6921,4.7151,4.7162,4.7172,4.7223,4.7243,4.7259,0,0,0,0,0,0,4.6226,4.6305,4.6296,4.644,4.6503,4.6575,4.6648,4.6637,4.6715,4.6707,4.6725,4.6743,4.6873,4.691,4.6844,4.7067,4.7008,4.7025,4.7037,4.7056,4.7071,4.7058,4.6795,0,0,0,0,0,4.6254,4.6341,4.6405,4.6526,4.6558,4.6598,4.6649,4.6656,4.6723,4.675,4.6797,4.6863,4.6949,4.7005,4.7088,4.7236,4.7251,4.73,4.7315,4.7327,4.734,4.7418,4.7439,4.7211,4.7211,4.7211,0,0,4.631,4.6364,4.6418,4.6537,4.6587,4.6676,4.6621,4.6718,4.6784,4.6765,4.6887,4.6925,4.6999,4.7137,4.72,4.7172,4.7407,4.7341,4.735,4.7356,4.7431,4.7452,4.7471,4.7219,4.7217,4.7216,0,0,4.6458,4.651,4.6614,4.6665,4.6741,4.6766,4.6792,4.6865,4.6888,4.7012,4.6999,4.7078,4.7227,4.7279,4.7326,4.7492,4.7477,4.7519,4.7596,4.7672,4.7689,4.7705,4.7761,4.7781,4.7533,4.7533,4.7533,0,4.6519,4.6653,4.6669,4.6767,4.6818,4.6805,4.6909,4.6959,4.7059,4.7094,4.7062,4.7246,4.7296,4.7444,4.7484,4.7524,4.7551,4.7509,4.7686,4.7702,4.7717,4.777,4.7792,4.7537,4.7537,4.7537,4.7536,0,4.6722,4.6815,4.689,4.6985,4.7045,4.7147,4.7177,4.7237,4.7239,4.7267,4.7392,4.7451,4.7544,4.7581,4.7585,4.7729,4.7708,4.7681,4.7621,4.7742,4.7793,4.7814,4.7544,4.7542,4.7541,4.754,0,0,4.6903,4.7004,4.7031,4.7073,4.7156,4.7228,4.7328,4.7418,4.7467,4.7537,4.7619,4.7745,4.7719,4.7772,4.7782,4.7848,4.7972,4.7812,4.7814,4.7837,4.8131,4.8148,4.8171,4.7964,4.7968,4.7971,4.8123,0,4.7055,4.723,4.7247,4.7404,4.7488,4.7477,4.7563,4.7623,4.7653,4.7728,4.7761,4.7848,4.781,4.7841,4.7907,4.7943,4.8031,4.7933,4.8039,4.8042,4.8016,4.8198,4.8217,4.8358,4.8143,4.8147,4.8149,0,4.7257,4.733,4.7494,4.7563,4.7599,4.7677,4.7759,4.7832,4.7899,4.7916,4.7974,4.7974,4.8076,4.8015,4.8155,4.8087,4.8132,4.8157,4.8163,4.817,4.81,4.8207,4.8403,4.8423,4.8181,4.8178,4.8176,0,4.7366,4.7507,4.7623,4.7659,4.7744,4.7798,4.7835,4.7898,4.7951,4.8023,4.8057,4.8142,4.8187,4.8252,4.8274,4.8229,4.8412,4.8353,4.8426,4.8425,4.8462,4.8459,4.8664,4.8498,4.8498,4.8497,4.8497,0,4.7533,4.7633,4.7673,4.7743,4.7855,4.7874,4.7984,4.8019,4.8075,4.8151,4.8148,4.822,4.8248,4.8324,4.8343,4.8453,4.8475,4.849,4.8493,4.8488,4.8486,4.8515,4.8504,4.8503,4.8502,4.85,4.8499,0,4.7673,4.7704,4.7829,4.7898,4.7917,4.7996,4.8055,4.8123,4.8151,4.8248,4.8272,4.8316,4.8406,4.8436,4.8545,4.8557,4.8685,4.8682,4.8661,4.8661,4.873,4.8722,4.8959,4.8989,4.8806,4.8808,4.8809,0,4.7775,4.7851,4.7928,4.7979,4.8018,4.81,4.8153,4.8175,4.823,4.8311,4.8369,4.8458,4.8529,4.8673,4.8714,4.8797,4.8793,4.8871,4.8806,4.8797,4.879,4.8783,4.8789,4.8882,4.8884,4.8885,4.8887,0,4.7951,4.7963,4.8038,4.812,4.8182,4.8248,4.8311,4.8352,4.8383,4.8445,4.8536,4.8592,4.8702,4.8789,4.8873,4.8912,4.8904,4.8907,4.8927,4.8921,4.8904,4.891,4.869,4.8901,4.8899,4.8898,4.8897,4.8897,4.8073,4.8139,4.8202,4.8286,4.8336,4.8394,4.846,4.8496,4.8572,4.8663,4.8672,4.8769,4.8833,4.8945,4.8987,4.9063,4.9041,4.9072,4.9079,4.9085,4.9088,4.8896,4.9079,4.9079,4.9079,4.9078,4.9078,0,4.8245,4.8285,4.8363,4.845,4.8516,4.8503,4.8572,4.8627,4.8712,4.8773,4.8843,4.8946,4.903,4.9078,4.9162,4.9214,4.9212,4.9235,4.9229,4.9237,4.9105,4.9077,4.9234,4.9234,4.9234,4.9234,4.9234,4.9234,4.8342,4.8452,4.8471,4.8605,4.8644,4.8738,4.8778,4.8832,4.8879,4.8994,4.9064,4.9095,4.915,4.9237,4.9313,4.9325,4.9355,4.9379,4.9388,4.9263,4.9247,4.9231,4.9205,4.9386,4.9387,4.9513,4.9514,4.9515]},{"header":{"parameterUnit":"m.s-1","parameterCategory":1,"la1":30.2991,"la2":30.254,"lo1":-89.0895,"lo2":-89.0444,"dy":0.0017,"dx":0.0017,"nx":28,"ny":28,"refTime":"2024-07-29T03:00:00:Z","depth":0,"parameterNumber":3,"parameterNumberName":"V-component_of_WINDS"},"data":[0,0,0,0,0,0,0,0,0,0,0,0,0,0,0,0,0,0,0,0,0,0,0,0,0,0,0,0,0,0,0,0,0,0,0,0,0,0,0,0,0,0,0,0,0,0,0,0,0,0,0,0,0,0,0,0,0,0,3.604,3.6041,0,3.6118,3.6118,3.6119,3.6084,3.6082,3.608,3.6078,3.6154,3.6158,3.6162,0,0,0,0,0,0,0,0,0,0,0,0,0,3.5858,3.5862,3.604,3.6041,3.6042,3.6117,3.6118,3.612,3.6084,3.6082,3.6079,3.6077,3.6153,3.6157,3.6162,0,0,0,0,0,0,0,0,0,0,0,0,0,3.5937,3.5863,3.604,3.6034,3.6034,3.6117,3.6119,3.612,3.6084,3.6081,3.6079,3.6076,3.6151,3.6157,3.6163,3.6256,0,0,3.618,3.6183,0,0,0,0,0,0,0,0,3.5932,3.5943,3.6034,3.6034,3.6035,3.6088,3.6082,3.6165,3.6085,3.6065,3.6078,3.6074,3.6134,3.6141,3.6162,3.626,3.6263,3.6181,3.6184,3.6187,3.6188,0,0,0,0,0,0,0,3.5927,3.594,3.6071,3.6035,3.6036,3.6026,3.6033,3.6098,3.6115,3.6067,3.6064,3.6074,3.6134,3.6157,3.6164,3.6264,3.6181,3.6186,3.6189,3.6191,3.644,3.6443,0,0,0,0,0,0,3.5922,3.5935,3.6068,3.6073,3.5975,3.6031,3.604,3.6074,3.6114,3.6118,3.6076,3.6072,3.6148,3.6157,3.6166,3.6277,3.6187,3.6192,3.6195,3.6437,3.6441,3.6445,0,0,0,0,0,0,3.5918,3.5934,3.6065,3.6004,3.602,3.6037,3.6076,3.6077,3.6099,3.6122,3.6124,3.6097,3.6146,3.6158,3.6234,3.6279,3.6195,3.62,3.6434,3.6438,3.6443,3.6501,0,0,0,0,0,0,3.5913,3.5933,3.597,3.6005,3.6023,3.6133,3.6078,3.608,3.611,3.6105,3.6141,3.6144,3.6145,3.6225,3.624,3.6286,3.6204,3.643,3.6436,3.6441,3.6495,3.6507,3.6518,0,0,0,0,0,3.5907,3.5983,3.5972,3.5988,3.607,3.6136,3.6146,3.6146,3.6114,3.615,3.6164,3.6143,3.6272,3.6234,3.6249,3.6298,3.6427,3.6434,3.6441,3.649,3.6505,3.6517,0,0,0,0,0,0,3.5952,3.5987,3.5976,3.6066,3.6098,3.613,3.6176,3.6162,3.6203,3.6197,3.6194,3.6202,3.6281,3.6297,3.6253,3.6389,3.6344,3.6355,3.6376,3.639,3.6401,3.6396,3.6209,0,0,0,0,0,3.5973,3.6025,3.6052,3.6129,3.6146,3.6158,3.6187,3.6184,3.6217,3.623,3.625,3.6282,3.6329,3.6361,3.6406,3.6497,3.6504,3.6538,3.6549,3.6558,3.6567,3.6615,3.663,3.6468,3.6468,3.6468,0,0,3.6016,3.6041,3.6074,3.6139,3.6163,3.6216,3.617,3.6228,3.6266,3.6239,3.6312,3.6327,3.6362,3.6446,3.6484,3.6462,3.6614,3.6567,3.6574,3.6579,3.6624,3.6639,3.6653,3.6473,3.6472,3.6471,0,0,3.6121,3.6146,3.6212,3.6238,3.6276,3.6283,3.6299,3.6333,3.6342,3.6415,3.6395,3.644,3.6523,3.6548,3.6572,3.6685,3.6667,3.67,3.6758,3.6805,3.6818,3.6829,3.6868,3.6883,3.6709,3.6709,3.6709,0,3.6169,3.6248,3.6247,3.6307,3.6335,3.6313,3.6379,3.6403,3.6454,3.6473,3.6448,3.655,3.6573,3.6661,3.6689,3.6709,3.6726,3.6696,3.6816,3.6828,3.6838,3.6876,3.689,3.6713,3.6712,3.6712,3.6712,0,3.6305,3.636,3.6409,3.6459,3.6493,3.6555,3.6562,3.6596,3.6589,3.6599,3.6673,3.6699,3.6748,3.6769,3.6763,3.6856,3.6841,3.6816,3.6771,3.6857,3.6892,3.6907,3.6718,3.6717,3.6715,3.6715,0,0,3.6441,3.649,3.6507,3.6529,3.6569,3.6611,3.6672,3.6721,3.6749,3.6784,3.6834,3.6904,3.6881,3.6908,3.6904,3.6945,3.7032,3.6915,3.6916,3.6935,3.7135,3.7153,3.717,3.702,3.7023,3.7025,3.7131,0,3.6549,3.6656,3.6656,3.6754,3.6804,3.6783,3.6836,3.6865,3.6876,3.6919,3.6929,3.6978,3.6945,3.6961,3.7,3.7013,3.7072,3.7005,3.7065,3.7067,3.7057,3.7188,3.7208,3.7307,3.7145,3.7148,3.7149,0,3.6688,3.6728,3.6832,3.6864,3.6885,3.6932,3.6976,3.7018,3.705,3.7054,3.7084,3.7074,3.7134,3.7087,3.7168,3.7123,3.7147,3.7157,3.7161,3.7166,3.7113,3.7196,3.7339,3.7354,3.7171,3.7169,3.7168,0,3.6776,3.6856,3.6928,3.6948,3.6986,3.702,3.7037,3.7067,3.7096,3.7134,3.7152,3.7197,3.7221,3.7254,3.7256,3.7222,3.7338,3.7291,3.7342,3.7342,3.7367,3.7366,3.7515,3.7384,3.7384,3.7384,3.7383,0,3.6895,3.6959,3.6968,3.7012,3.7083,3.7081,3.7151,3.7165,3.7191,3.7237,3.7221,3.7264,3.7263,3.7307,3.7308,3.7375,3.7386,3.739,3.7389,3.7391,3.7391,3.7407,3.74,3.7387,3.7387,3.7386,3.7385,0,3.7005,3.7014,3.7091,3.7121,3.713,3.7181,3.7206,3.7247,3.7256,3.7314,3.7327,3.734,3.739,3.7395,3.7453,3.7453,3.7534,3.7526,3.7523,3.7522,3.7572,3.7567,3.7737,3.7759,3.7614,3.7615,3.7616,0,3.7081,3.7129,3.7165,3.7195,3.7214,3.7263,3.7292,3.7292,3.7323,3.7363,3.7399,3.7448,3.7486,3.7567,3.758,3.7624,3.7617,3.7673,3.7623,3.7623,3.7617,3.7614,3.7618,3.7683,3.7685,3.7686,3.7687,0,3.7213,3.7215,3.7259,3.7304,3.7339,3.7375,3.7408,3.7432,3.7436,3.7472,3.7523,3.7553,3.7612,3.766,3.7702,3.7719,3.7703,3.7703,3.7716,3.7719,3.7715,3.7717,3.7549,3.7699,3.7697,3.7697,3.7696,3.7695,3.7308,3.735,3.7381,3.743,3.7455,3.7486,3.7526,3.7539,3.7582,3.7631,3.7628,3.7684,3.7713,3.7769,3.7789,3.7832,3.7812,3.7833,3.7838,3.7843,3.7848,3.7708,3.7839,3.7839,3.7839,3.7838,3.7838,0,3.7438,3.7458,3.7503,3.7549,3.7587,3.757,3.7605,3.7638,3.7688,3.7717,3.7756,3.7814,3.786,3.7877,3.7921,3.7952,3.7946,3.7964,3.7961,3.7965,3.7863,3.7846,3.7968,3.7968,3.7968,3.7968,3.7968,3.7968,3.7511,3.7581,3.7586,3.7667,3.7685,3.7741,3.7762,3.779,3.7813,3.7879,3.7918,3.7929,3.7953,3.7999,3.804,3.8043,3.806,3.8081,3.8081,3.7985,3.7972,3.796,3.7944,3.8084,3.8085,3.818,3.8181,3.8181]}]]